Location: Newark
(49.2191°N, 12.6671°E)
Time: 02:35:01
(UTC+00:00)

Transit 2A - Pass Details

Date: 30 January 2020
Orbit: 599 x 959 km, 66.7° (Epoch: 25 February)

Event Time Altitude Azimuth Distance (km) Brightness Sun altitude
Rises 16:44:17 0° 169° (S) 2,881 9.1 -7.3°
Reaches altitude 10° 16:47:14 10° 148° (SSE) 1,952 8.0 -7.7°
Maximum altitude 16:49:58 16° 109° (ESE) 1,565 7.2 -8.1°
Enters shadow 16:52:25 11° 73° (ENE) 1,881 7.3 -8.5°
